Location: Arbon
(43.0005°N, 0.7472°E)
Time: 14:59:20
(UTC+00:00)

A-11 Canister half - Pass Details

Date: 27 November 2020
Orbit: 1517 x 1683 km, 47.2° (Epoch: 15 January)

Event Time Altitude Azimuth Distance (km) Brightness Sun altitude
Rises 19:31:11 0° 294° (WNW) 4,939 12.6 -33.5°
Reaches altitude 10° 19:34:53 10° 284° (WNW) 3,949 11.9 -34.2°
Maximum altitude 19:43:05 29° 230° (SW) 2,706 10.5 -35.7°
Drops below altitude 10° 19:51:12 10° 175° (S) 3,886 11.0 -37.2°
Enters shadow 19:51:47 - 173° (S) 4,030 11.1 -37.3°
